Location: Ehrke Reservoir
(40.0279°N, 99.6641°W)
Time: 19:47:21
(UTC+00:00)

STARLINK-1086 - Pass Details

Date: 20 January 2020
Orbit: 349 x 351 km, 53.0° (Epoch: 21 February)

Event Time Altitude Azimuth Distance (km) Brightness Sun altitude
Rises 00:08:31 0° 251° (WSW) 2,156 9.6 -5.5°
Reaches altitude 10° 00:10:39 10° 262° (W) 1,316 7.2 -5.9°
Maximum altitude 00:13:19 31° 327° (NNW) 654 4.2 -6.3°
Drops below altitude 10° 00:16:00 10° 33° (NNE) 1,324 5.1 -6.8°
Enters shadow 00:16:43 - 38° (NE) 1,598 5.5 -6.9°
